This demonstration page uses our WeatherBlox Daily Observations layout. Learn more.

41.55636, -103.73856

Hourly Observations for August 18, 2019

Temp ( °F °C ) Dew Point ( °F °C ) Humidity (%) Winds ( mph kmh ) Pressure ( in mb ) Visibility ( mi km ) Precip ( " mm )
12:41 am 00:41 Cloudy 63 17 55 13 77 77 NNE 12 19 29.83 1010 10 16.09344 0 0
12:53 am 00:53 Cloudy 62 16.7 56 13.3 80 80 NE 10 17 29.8 1009 10 16.09344 0 0
1:53 am 01:53 Cloudy 62 16.7 55 12.8 78 78 N 7 11 29.8 1009 10 16.09344 0 0
2:53 am 02:53 Cloudy 60 15.6 55 12.8 84 84 NNE 7 11 29.83 1010 10 16.09344 0 0
3:27 am 03:27 Cloudy 60 15.6 56 13.3 86 86 NE 3 6 29.83 1010 10 16.09344 0 0
3:53 am 03:53 Cloudy 59 15 57 13.9 93 93 ENE 7 11 29.85 1011 10 16.09344 0 0
4:11 am 04:11 Cloudy 59 15 56 13.3 90 90 E 5 7 29.88 1012 10 16.09344 0 0
4:25 am 04:25 Cloudy 59 15 56 13.3 90 90 ENE 3 6 29.88 1012 7 11.265408 0 0
4:42 am 04:42 Cloudy with Mist and Fog 59 15 56 13.3 90 90 NNE 5 7 29.88 1012 5 8.04672 0 0
4:53 am 04:53 Cloudy with Mist and Fog 58 14.4 56 13.3 93 93 ENE 5 7 29.85 1011 6 9.656064 0 0
5:53 am 05:53 Cloudy 58 14.4 56 13.3 93 93 Calm 29.85 1011 10 16.09344 0 0
6:18 am 06:18 Cloudy 59 15 55 13 88 88 ESE 6 9 29.88 1012 10 16.09344 0 0
6:53 am 06:53 Cloudy 59 15 57 13.9 93 93 ESE 5 7 29.88 1012 10 16.09344 0 0
7:03 am 07:03 Cloudy 59 15 57 13.9 93 93 ESE 5 7 29.91 1013 10 16.09344 0 0
7:53 am 07:53 Mostly Sunny 61 16.1 55 12.8 81 81 SE 10 17 29.88 1012 10 16.09344 0 0
8:26 am 08:26 Mostly Cloudy 63 17 55 13 77 77 SSE 8 13 29.88 1012 10 16.09344 0 0
8:53 am 08:53 Partly Cloudy 65 18.3 55 12.8 70 70 S 9 15 29.91 1013 10 16.09344 0 0
9:53 am 09:53 Mostly Sunny 70 21.1 56 13.3 61 61 S 12 19 29.88 1012 10 16.09344 0 0
10:53 am 10:53 Mostly Cloudy 74 23.3 56 13.3 54 54 S 13 20 29.85 1011 10 16.09344 0 0
11:53 am 11:53 Sunny 76 24.4 55 12.8 48 48 SSW 10 17 29.83 1010 10 16.09344 0 0
12:53 pm 12:53 Sunny 80 26.7 57 13.9 45 45 S 10 17 29.83 1010 10 16.09344 0 0
1:53 pm 13:53 Sunny 83 28.3 57 13.9 41 41 SSE 9 15 29.77 1008 10 16.09344 0 0
2:53 pm 14:53 Sunny 86 30 56 13.3 36 36 SE 13 20 29.77 1008 10 16.09344 0 0
3:53 pm 15:53 Sunny 87 30.6 54 12.2 32 32 SE 10 17 29.74 1007 10 16.09344 0 0
4:53 pm 16:53 Sunny 88 31.1 54 12.2 31 31 ESE 12 19 29.74 1007 10 16.09344 0 0
5:53 pm 17:53 Sunny 86 30 59 15 40 40 E 12 19 29.74 1007 10 16.09344 0 0
6:53 pm 18:53 Sunny 82 27.8 62 16.7 51 51 ESE 10 17 29.74 1007 10 16.09344 0 0
7:53 pm 19:53 Clear 74 23.3 61 16.1 64 64 ENE 10 17 29.77 1008 10 16.09344 0 0
8:53 pm 20:53 Clear 73 22.8 60 15.6 64 64 E 13 20 29.8 1009 10 16.09344 0 0
9:53 pm 21:53 Clear 72 22.2 60 15.6 66 66 ESE 12 19 29.8 1009 10 16.09344 0 0
10:53 pm 22:53 Clear 68 20 61 16.1 78 78 E 9 15 29.83 1010 10 16.09344 0 0
11:53 pm 23:53 Clear 67 19.4 62 16.7 84 84 ESE 12 19 29.83 1010 10 16.09344 0 0

Powered by AerisWeather